This demonstration page uses our WeatherBlox Daily Observations layout. Learn more.

Left ArrowRight Arrow

Hourly Observations for May 14, 2015

Temp ( °F °C ) Dew Point ( °F °C ) Humidity (%) Winds ( mph kmh ) Pressure ( in mb ) Visibility ( mi km ) Precip ( " mm )
12:53 am 00:53 Cloudy 58 14.4 57 13.9 97 97 SSE 16 26 29.95 1014 7 11 0.02 0.51
1:15 am 01:15 Cloudy with Light Rain 59 15 57 13.9 93 93 SSE 18 30 29.97 1015 8 13 0.00 0.03
1:53 am 01:53 Cloudy with Drizzle 59 15 57 13.9 93 93 SSE 15 24 29.94 1014 5 8 0.00 0.03
2:20 am 02:20 Cloudy with Drizzle 59 15 57 13.9 93 93 SSE 15 24 29.94 1014 2 3 0.00 0.03
2:33 am 02:33 Cloudy with Drizzle 59 15 57 13.9 93 93 SSE 16 26 29.94 1014 5 8 0.00 0.03
2:53 am 02:53 Cloudy with Drizzle 59 15 57 13.9 93 93 SSE 14 22 29.93 1013 10 16 0.00 0.03
3:53 am 03:53 Cloudy 60 15.6 58 14.4 93 93 S 15 24 29.92 1013 10 16 0.00 0.03
4:14 am 04:14 Cloudy 61 16 57 14 88 88 S 15 24 29.91 1013 7 11 0.00 0.00
4:53 am 04:53 Cloudy with Drizzle 60 15.6 59 15 96 96 S 12 19 29.91 1013 7 11 0.00 0.03
5:53 am 05:53 Cloudy with Drizzle 61 16.1 59 15 93 93 S 8 13 29.91 1013 10 16 0.00 0.03
6:53 am 06:53 Cloudy 62 16.7 60 15.6 93 93 S 9 15 29.92 1013 10 16 0.00 0.03
7:53 am 07:53 Cloudy with Light Rain 62 16.7 60 15.6 93 93 S 9 15 29.94 1014 9 14 0.00 0.03
8:53 am 08:53 Cloudy 63 17.2 61 16.1 93 93 S 9 15 29.94 1014 10 16 0.00 0.03
9:00 am 09:00 Cloudy 63 17 61 16 94 94 S 9 15 29.94 1014 10 16 0.00 0.00
9:51 am 09:51 Cloudy 66 19 63 17 88 88 SSW 15 24 29.94 1014 10 16 0.00 0.03
9:53 am 09:53 Cloudy 66 18.9 62 16.7 87 87 SSW 15 24 29.94 1014 10 16 0.00 0.03
10:53 am 10:53 Cloudy 68 20 62 16.7 81 81 SW 14 22 29.94 1014 10 16 0.00 0.00
11:20 am 11:20 Mostly Cloudy 70 21 63 17 78 78 SW 16 26 29.94 1014 10 16 0.00 0.00
11:38 am 11:38 Mostly Cloudy 70 21 63 17 78 78 SW 13 20 29.94 1014 10 16 0.00 0.00
11:53 am 11:53 Mostly Cloudy 70 21.1 61 16.1 73 73 SW 16 26 29.94 1014 10 16 0.00 0.00
12:00 pm 12:00 Mostly Cloudy 72 22 61 16 69 69 SW 14 22 29.91 1013 10 16 0.00 0.00
12:53 pm 12:53 Mostly Cloudy 73 22.8 60 15.6 64 64 WSW 13 20 29.93 1014 10 16 0.00 0.00
1:53 pm 13:53 Mostly Cloudy 75 23.9 62 16.7 64 64 SW 10 17 29.92 1013 10 16 0.00 0.00
2:53 pm 14:53 Mostly Cloudy 77 25 61 16.1 58 58 WSW 12 19 29.91 1013 10 16 0.00 0.00
3:53 pm 15:53 Mostly Cloudy 77 25 62 16.7 60 60 SSW 12 19 29.90 1013 10 16 0.00 0.00
4:53 pm 16:53 Mostly Cloudy 76 24.4 62 16.7 62 62 S 15 24 29.89 1012 10 16 0.00 0.00
5:53 pm 17:53 Mostly Sunny 78 25.6 62 16.7 58 58 S 9 15 29.89 1012 10 16 0.00 0.00
6:53 pm 18:53 Mostly Cloudy 78 25.6 64 17.8 62 62 SSW 9 15 29.88 1012 10 16 0.00 0.00
7:53 pm 19:53 Sunny 74 23.3 65 18.3 74 74 S 6 9 29.87 1012 10 16 0.00 0.00
8:53 pm 20:53 Partly Cloudy 71 21.7 64 17.8 79 79 SE 6 9 29.87 1012 10 16 0.00 0.00
9:53 pm 21:53 Clear 71 21.7 64 17.8 79 79 SE 7 11 29.89 1012 10 16 0.00 0.00
10:53 pm 22:53 Mostly Clear 70 21.1 64 17.8 82 82 SE 7 11 29.90 1013 10 16 0.00 0.00
11:53 pm 23:53 Mostly Cloudy 70 21.1 64 17.8 82 82 SSE 8 13 29.91 1013 10 16 0.00 0.00

Powered by AerisWeather